Time,TemperatureF,DewpointF,PressureIn,WindDirection,WindDirectionDegrees,WindSpeedMPH,WindSpeedGustMPH,Humidity,HourlyPrecipIn,Conditions,Clouds,dailyrainin,SoftwareType,DateUTC
2013-07-26 00:05:00,72.1,62.6,29.94,SSE,147,0.0,0.0,72,0.00,,,0.00,Wunderground v.1.15,2013-07-26 05:05:00,
2013-07-26 00:14:00,71.5,62.0,29.94,SSE,147,0.0,0.0,72,0.00,,,0.00,Wunderground v.1.15,2013-07-26 05:14:00,
2013-07-26 00:20:00,71.1,61.6,29.94,SSE,147,0.0,0.0,72,0.00,,,0.00,Wunderground v.1.15,2013-07-26 05:20:00,
2013-07-26 00:30:00,70.6,62.3,29.94,SSE,147,0.0,0.0,75,0.00,,,0.00,Wunderground v.1.15,2013-07-26 05:30:00,
2013-07-26 00:40:00,69.9,62.0,29.93,SSE,147,0.0,0.0,76,0.00,,,0.00,Wunderground v.1.15,2013-07-26 05:40:00,
2013-07-26 00:50:00,69.4,62.2,29.93,SSE,147,0.0,0.0,78,0.00,,,0.00,Wunderground v.1.15,2013-07-26 05:50:00,
2013-07-26 01:00:00,69.1,62.7,29.93,SSE,147,0.0,0.0,80,0.00,,,0.00,Wunderground v.1.15,2013-07-26 06:00:00,
2013-07-26 01:05:00,68.9,62.1,29.92,SSE,147,0.0,0.0,79,0.00,,,0.00,Wunderground v.1.15,2013-07-26 06:05:00,
2013-07-26 01:10:00,68.9,61.8,29.92,SSE,147,0.0,0.0,78,0.00,,,0.00,Wunderground v.1.15,2013-07-26 06:10:00,
2013-07-26 01:19:00,69.8,61.9,29.92,SSE,147,0.0,0.0,76,0.00,,,0.00,Wunderground v.1.15,2013-07-26 06:19:00,
2013-07-26 01:25:00,70.3,62.0,29.92,SSE,147,0.0,0.0,75,0.00,,,0.00,Wunderground v.1.15,2013-07-26 06:25:00,
2013-07-26 01:35:00,70.6,62.3,29.92,SSE,147,0.0,0.0,75,0.00,,,0.00,Wunderground v.1.15,2013-07-26 06:35:00,
2013-07-26 01:44:00,70.8,62.5,29.92,SSE,147,0.0,0.0,75,0.00,,,0.00,Wunderground v.1.15,2013-07-26 06:44:00,
2013-07-26 01:50:00,70.6,62.3,29.93,SSE,147,0.0,0.0,75,0.00,,,0.00,Wunderground v.1.15,2013-07-26 06:50:00,
2013-07-26 02:00:00,70.4,62.5,29.93,SSE,147,0.0,0.0,76,0.00,,,0.00,Wunderground v.1.15,2013-07-26 07:00:00,
2013-07-26 02:05:00,70.6,62.7,29.92,SSE,147,0.0,0.0,76,0.00,,,0.00,Wunderground v.1.15,2013-07-26 07:05:00,
2013-07-26 02:10:00,70.8,62.5,29.92,SSE,147,0.0,0.0,75,0.00,,,0.00,Wunderground v.1.15,2013-07-26 07:10:00,
2013-07-26 02:20:00,71.1,62.4,29.92,SSE,147,0.0,0.0,74,0.00,,,0.00,Wunderground v.1.15,2013-07-26 07:20:00,
2013-07-26 02:30:00,71.1,62.4,29.92,SSE,147,0.0,0.0,74,0.00,,,0.00,Wunderground v.1.15,2013-07-26 07:30:00,
2013-07-26 02:40:00,71.1,62.8,29.91,SE,143,0.0,0.0,75,0.00,,,0.00,Wunderground v.1.15,2013-07-26 07:40:00,
2013-07-26 02:50:00,71.3,62.6,29.90,SE,143,0.0,0.0,74,0.00,,,0.00,Wunderground v.1.15,2013-07-26 07:50:00,
2013-07-26 03:00:00,71.3,62.6,29.90,SE,144,0.0,0.0,74,0.00,,,0.00,Wunderground v.1.15,2013-07-26 08:00:00,
2013-07-26 03:05:00,71.3,62.2,29.90,SE,143,0.0,0.0,73,0.00,,,0.00,Wunderground v.1.15,2013-07-26 08:05:00,
2013-07-26 03:15:00,71.3,62.2,29.90,SE,144,0.0,0.0,73,0.00,,,0.00,Wunderground v.1.15,2013-07-26 08:15:00,
2013-07-26 03:20:00,71.5,62.4,29.89,SE,143,0.0,0.0,73,0.00,,,0.00,Wunderground v.1.15,2013-07-26 08:20:00,
2013-07-26 03:30:00,71.3,62.2,29.89,SE,144,0.0,0.0,73,0.00,,,0.00,Wunderground v.1.15,2013-07-26 08:30:00,
2013-07-26 03:40:00,71.3,62.6,29.90,SE,142,0.0,0.0,74,0.00,,,0.00,Wunderground v.1.15,2013-07-26 08:40:00,
2013-07-26 03:50:00,71.3,62.6,29.89,SE,142,0.0,0.0,74,0.00,,,0.00,Wunderground v.1.15,2013-07-26 08:50:00,
2013-07-26 04:00:00,71.3,62.6,29.89,SE,142,0.0,0.0,74,0.00,,,0.00,Wunderground v.1.15,2013-07-26 09:00:00,
2013-07-26 04:05:00,71.3,63.0,29.89,SE,142,0.0,0.0,75,0.00,,,0.00,Wunderground v.1.15,2013-07-26 09:05:00,
2013-07-26 04:10:00,71.3,63.0,29.89,SE,142,0.0,0.0,75,0.00,,,0.00,Wunderground v.1.15,2013-07-26 09:10:00,
2013-07-26 04:20:00,71.3,63.0,29.90,SE,142,0.0,0.0,75,0.00,,,0.00,Wunderground v.1.15,2013-07-26 09:20:00,
2013-07-26 04:30:00,71.1,63.1,29.90,SE,142,0.0,0.0,76,0.00,,,0.00,Wunderground v.1.15,2013-07-26 09:30:00,
2013-07-26 04:40:00,70.9,63.3,29.91,SE,142,0.0,0.0,77,0.00,,,0.00,Wunderground v.1.15,2013-07-26 09:40:00,
2013-07-26 04:50:00,70.6,63.0,29.90,SE,142,0.0,0.0,77,0.00,,,0.00,Wunderground v.1.15,2013-07-26 09:50:00,
2013-07-26 05:00:00,70.6,62.7,29.90,SE,142,0.0,2.0,76,0.00,,,0.00,Wunderground v.1.15,2013-07-26 10:00:00,
2013-07-26 05:05:00,70.8,62.9,29.90,SE,142,0.0,2.0,76,0.00,,,0.00,Wunderground v.1.15,2013-07-26 10:05:00,
2013-07-26 05:10:00,70.8,63.2,29.90,SE,142,0.0,0.0,77,0.00,,,0.00,Wunderground v.1.15,2013-07-26 10:10:00,
2013-07-26 05:20:00,70.6,63.0,29.90,SE,144,0.0,0.0,77,0.00,,,0.00,Wunderground v.1.15,2013-07-26 10:20:00,
2013-07-26 05:30:00,70.3,63.1,29.90,SE,146,0.0,0.0,78,0.00,,,0.00,Wunderground v.1.15,2013-07-26 10:30:00,
2013-07-26 05:40:00,70.1,63.3,29.92,SE,146,0.0,0.0,79,0.00,,,0.00,Wunderground v.1.15,2013-07-26 10:40:00,
2013-07-26 05:50:00,69.9,63.4,29.92,SE,146,0.0,0.0,80,0.00,,,0.00,Wunderground v.1.15,2013-07-26 10:50:00,
2013-07-26 06:00:00,69.8,63.7,29.92,SE,146,0.0,0.0,81,0.00,,,0.00,Wunderground v.1.15,2013-07-26 11:00:00,
2013-07-26 06:05:00,69.8,63.7,29.92,SE,146,0.0,1.0,81,0.00,,,0.00,Wunderground v.1.15,2013-07-26 11:05:00,
2013-07-26 06:10:00,69.8,63.7,29.92,SE,146,0.0,0.0,81,0.00,,,0.00,Wunderground v.1.15,2013-07-26 11:10:00,
2013-07-26 06:20:00,69.6,64.2,29.90,SE,146,0.0,0.0,83,0.00,,,0.00,Wunderground v.1.15,2013-07-26 11:20:00,
2013-07-26 06:30:00,69.4,64.0,29.90,SE,146,0.0,0.0,83,0.00,,,0.00,Wunderground v.1.15,2013-07-26 11:30:00,
2013-07-26 06:40:00,69.3,63.9,29.90,SE,146,0.0,0.0,83,0.00,,,0.00,Wunderground v.1.15,2013-07-26 11:40:00,
2013-07-26 06:50:00,69.4,64.0,29.90,SE,146,0.0,0.0,83,0.00,,,0.00,Wunderground v.1.15,2013-07-26 11:50:00,
2013-07-26 07:00:00,69.4,64.0,29.90,SE,146,0.0,0.0,83,0.00,,,0.00,Wunderground v.1.15,2013-07-26 12:00:00,
2013-07-26 07:05:00,69.4,64.4,29.91,SSE,152,0.0,0.0,84,0.00,,,0.00,Wunderground v.1.15,2013-07-26 12:05:00,
2013-07-26 07:10:00,69.4,64.4,29.91,SSE,152,0.0,0.0,84,0.00,,,0.00,Wunderground v.1.15,2013-07-26 12:10:00,
2013-07-26 07:20:00,69.3,64.3,29.91,SSE,152,0.0,0.0,84,0.00,,,0.00,Wunderground v.1.15,2013-07-26 12:20:00,
2013-07-26 07:29:00,69.4,64.0,29.91,SSE,147,1.0,1.0,83,0.00,,,0.00,Wunderground v.1.15,2013-07-26 12:29:00,
2013-07-26 07:35:00,69.4,64.0,29.91,SE,146,1.0,2.0,83,0.00,,,0.00,Wunderground v.1.15,2013-07-26 12:35:00,
2013-07-26 07:45:00,69.6,64.2,29.91,SSE,153,1.0,1.0,83,0.00,,,0.00,Wunderground v.1.15,2013-07-26 12:45:00,
2013-07-26 07:55:00,69.9,64.2,29.89,SSE,157,0.0,0.0,82,0.00,,,0.00,Wunderground v.1.15,2013-07-26 12:55:00,
2013-07-26 08:05:00,69.9,64.2,29.90,SSE,157,0.0,0.0,82,0.00,,,0.00,Wunderground v.1.15,2013-07-26 13:05:00,
2013-07-26 08:15:00,70.1,64.3,29.90,SSE,153,0.0,0.0,82,0.00,,,0.00,Wunderground v.1.15,2013-07-26 13:15:00,
2013-07-26 08:20:00,69.9,64.5,29.91,SSW,201,1.0,1.0,83,0.00,,,0.00,Wunderground v.1.15,2013-07-26 13:20:00,
2013-07-26 08:29:00,69.8,64.7,29.91,SSW,201,0.0,0.0,84,0.00,,,0.00,Wunderground v.1.15,2013-07-26 13:29:00,
2013-07-26 08:35:00,69.8,64.7,29.92,SSW,201,0.0,0.0,84,0.00,,,0.00,Wunderground v.1.15,2013-07-26 13:35:00,
2013-07-26 08:45:00,69.6,65.2,29.92,SSW,201,0.0,0.0,86,0.00,,,0.01,Wunderground v.1.15,2013-07-26 13:45:00,
2013-07-26 08:55:00,69.4,65.4,29.93,West,267,0.0,1.0,87,0.00,,,0.01,Wunderground v.1.15,2013-07-26 13:55:00,
2013-07-26 09:05:00,69.3,65.3,29.95,West,271,0.0,0.0,87,0.00,,,0.02,Wunderground v.1.15,2013-07-26 14:05:00,
2013-07-26 09:15:00,68.9,65.2,29.95,West,271,0.0,0.0,88,0.33,,,0.05,Wunderground v.1.15,2013-07-26 14:15:00,
2013-07-26 09:25:00,68.8,65.4,29.95,West,271,0.0,0.0,89,0.53,,,0.14,Wunderground v.1.15,2013-07-26 14:25:00,
2013-07-26 09:35:00,68.6,65.5,29.94,North,9,1.0,4.0,90,0.82,,,0.32,Wunderground v.1.15,2013-07-26 14:35:00,
2013-07-26 09:40:00,68.4,65.4,29.94,NE,37,2.0,4.0,90,0.18,,,0.33,Wunderground v.1.15,2013-07-26 14:40:00,
2013-07-26 09:49:00,68.4,65.7,29.94,WNW,291,1.0,2.0,91,0.14,,,0.36,Wunderground v.1.15,2013-07-26 14:49:00,
2013-07-26 09:55:00,68.4,65.7,29.94,WNW,295,1.0,2.0,91,0.41,,,0.39,Wunderground v.1.15,2013-07-26 14:55:00,
2013-07-26 10:05:00,68.6,66.2,29.95,NNW,344,1.0,2.0,92,2.84,,,0.44,Wunderground v.1.15,2013-07-26 15:05:00,
2013-07-26 10:15:00,68.6,66.2,29.95,NNW,346,0.0,1.0,92,0.19,,,0.53,Wunderground v.1.15,2013-07-26 15:15:00,
2013-07-26 10:25:00,68.6,66.2,29.96,North,350,1.0,1.0,92,0.11,,,0.55,Wunderground v.1.15,2013-07-26 15:25:00,
2013-07-26 10:35:00,68.8,66.4,29.96,North,350,0.0,0.0,92,0.05,,,0.56,Wunderground v.1.15,2013-07-26 15:35:00,
2013-07-26 10:45:00,68.8,66.4,29.96,North,350,0.0,0.0,92,0.15,,,0.58,Wunderground v.1.15,2013-07-26 15:45:00,
2013-07-26 10:55:00,69.3,67.2,29.96,North,350,0.0,0.0,93,0.04,,,0.58,Wunderground v.1.15,2013-07-26 15:55:00,
2013-07-26 11:05:00,69.4,67.3,29.96,North,350,0.0,0.0,93,0.04,,,0.59,Wunderground v.1.15,2013-07-26 16:05:00,
2013-07-26 11:15:00,69.4,67.3,29.96,ENE,78,0.0,0.0,93,0.00,,,0.59,Wunderground v.1.15,2013-07-26 16:15:00,
2013-07-26 11:25:00,69.6,67.2,29.96,East,79,0.0,0.0,92,0.00,,,0.59,Wunderground v.1.15,2013-07-26 16:25:00,
2013-07-26 11:34:00,69.8,67.7,29.95,East,79,0.0,1.0,93,0.00,,,0.60,Wunderground v.1.15,2013-07-26 16:34:00,
2013-07-26 11:40:00,70.1,68.0,29.95,SE,125,0.0,0.0,93,0.00,,,0.60,Wunderground v.1.15,2013-07-26 16:40:00,
2013-07-26 11:50:00,70.1,67.7,29.96,SSE,163,1.0,2.0,92,0.00,,,0.60,Wunderground v.1.15,2013-07-26 16:50:00,
2013-07-26 12:00:00,69.8,67.4,29.96,SE,141,2.0,2.0,92,0.00,,,0.61,Wunderground v.1.15,2013-07-26 17:00:00,
2013-07-26 12:05:00,69.3,66.9,29.96,SSE,162,1.0,2.0,92,0.00,,,0.61,Wunderground v.1.15,2013-07-26 17:05:00,
2013-07-26 12:10:00,68.9,66.2,29.96,SSE,149,2.0,3.0,91,0.00,,,0.61,Wunderground v.1.15,2013-07-26 17:10:00,
2013-07-26 12:20:00,68.4,65.4,29.97,SSE,153,2.0,2.0,90,0.00,,,0.62,Wunderground v.1.15,2013-07-26 17:20:00,
2013-07-26 12:30:00,67.6,64.6,29.97,ESE,103,1.0,1.0,90,0.08,,,0.64,Wunderground v.1.15,2013-07-26 17:30:00,
2013-07-26 12:40:00,66.8,63.8,29.97,ESE,103,0.0,0.0,90,0.08,,,0.65,Wunderground v.1.15,2013-07-26 17:40:00,
2013-07-26 12:50:00,66.8,63.8,29.97,ENE,60,0.0,0.0,90,0.04,,,0.65,Wunderground v.1.15,2013-07-26 17:50:00,
2013-07-26 13:00:00,66.9,63.9,29.97,ENE,60,0.0,0.0,90,0.04,,,0.66,Wunderground v.1.15,2013-07-26 18:00:00,
2013-07-26 13:05:00,67.1,64.4,29.96,ENE,60,0.0,0.0,91,0.04,,,0.66,Wunderground v.1.15,2013-07-26 18:05:00,
2013-07-26 13:10:00,67.3,64.6,29.96,ENE,60,0.0,0.0,91,0.00,,,0.67,Wunderground v.1.15,2013-07-26 18:10:00,
2013-07-26 13:20:00,67.4,64.7,29.95,ENE,60,0.0,0.0,91,0.11,,,0.68,Wunderground v.1.15,2013-07-26 18:20:00,
2013-07-26 13:29:00,67.6,64.9,29.95,ENE,60,0.0,0.0,91,0.10,,,0.70,Wunderground v.1.15,2013-07-26 18:29:00,
2013-07-26 13:35:00,67.6,64.9,29.95,ENE,60,0.0,0.0,91,0.09,,,0.70,Wunderground v.1.15,2013-07-26 18:35:00,
2013-07-26 13:45:00,67.9,65.2,29.95,ENE,60,0.0,1.0,91,0.21,,,0.75,Wunderground v.1.15,2013-07-26 18:45:00,
2013-07-26 13:55:00,68.1,65.7,29.95,ENE,60,0.0,2.0,92,0.14,,,0.78,Wunderground v.1.15,2013-07-26 18:55:00,
2013-07-26 14:05:00,68.1,65.7,29.95,ENE,60,0.0,1.0,92,0.12,,,0.80,Wunderground v.1.15,2013-07-26 19:05:00,
2013-07-26 14:15:00,68.4,66.0,29.95,ENE,60,0.0,0.0,92,0.10,,,0.81,Wunderground v.1.15,2013-07-26 19:15:00,
2013-07-26 14:25:00,68.6,66.2,29.95,ENE,60,0.0,0.0,92,0.17,,,0.84,Wunderground v.1.15,2013-07-26 19:25:00,
2013-07-26 14:35:00,68.6,66.2,29.94,ENE,60,0.0,0.0,92,0.35,,,0.89,Wunderground v.1.15,2013-07-26 19:35:00,
2013-07-26 14:45:00,68.6,66.2,29.94,ENE,60,0.0,1.0,92,0.20,,,0.92,Wunderground v.1.15,2013-07-26 19:45:00,
2013-07-26 14:55:00,68.8,66.7,29.94,ENE,60,0.0,0.0,93,0.29,,,0.97,Wunderground v.1.15,2013-07-26 19:55:00,
2013-07-26 15:05:00,68.9,66.8,29.94,ENE,60,0.0,0.0,93,0.11,,,0.99,Wunderground v.1.15,2013-07-26 20:05:00,
2013-07-26 15:14:00,68.9,66.8,29.94,ENE,61,0.0,0.0,93,0.07,,,1.00,Wunderground v.1.15,2013-07-26 20:14:00,
2013-07-26 15:20:00,69.1,67.0,29.93,ENE,61,0.0,0.0,93,0.07,,,1.01,Wunderground v.1.15,2013-07-26 20:20:00,
2013-07-26 15:30:00,69.1,67.0,29.93,ENE,59,0.0,0.0,93,0.04,,,1.01,Wunderground v.1.15,2013-07-26 20:30:00,
2013-07-26 15:35:00,69.3,67.2,29.93,ENE,77,0.0,0.0,93,0.04,,,1.02,Wunderground v.1.15,2013-07-26 20:35:00,
2013-07-26 15:45:00,69.3,67.2,29.93,ENE,77,0.0,0.0,93,0.12,,,1.04,Wunderground v.1.15,2013-07-26 20:45:00,
2013-07-26 15:54:00,69.3,67.2,29.93,ENE,77,0.0,0.0,93,0.19,,,1.06,Wunderground v.1.15,2013-07-26 20:54:00,
2013-07-26 16:00:00,69.3,67.2,29.93,ENE,77,0.0,0.0,93,0.11,,,1.07,Wunderground v.1.15,2013-07-26 21:00:00,
2013-07-26 16:05:00,68.9,66.8,29.93,ENE,77,0.0,0.0,93,0.08,,,1.07,Wunderground v.1.15,2013-07-26 21:05:00,
2013-07-26 16:10:00,68.8,66.4,29.93,ENE,78,0.0,0.0,92,0.07,,,1.08,Wunderground v.1.15,2013-07-26 21:10:00,
2013-07-26 16:20:00,68.4,66.0,29.93,ENE,78,0.0,0.0,92,0.24,,,1.12,Wunderground v.1.15,2013-07-26 21:20:00,
2013-07-26 16:29:00,68.4,66.0,29.93,ENE,78,0.0,0.0,92,0.24,,,1.16,Wunderground v.1.15,2013-07-26 21:29:00,
2013-07-26 16:35:00,68.6,66.2,29.93,ENE,77,0.0,0.0,92,0.33,,,1.18,Wunderground v.1.15,2013-07-26 21:35:00,
2013-07-26 16:45:00,68.8,66.7,29.93,SSE,161,0.0,3.0,93,0.33,,,1.22,Wunderground v.1.15,2013-07-26 21:45:00,
2013-07-26 16:55:00,68.4,66.0,29.93,ESE,117,1.0,3.0,92,0.14,,,1.25,Wunderground v.1.15,2013-07-26 21:55:00,
2013-07-26 17:05:00,67.9,65.5,29.93,SE,132,2.0,3.0,92,0.09,,,1.26,Wunderground v.1.15,2013-07-26 22:05:00,
2013-07-26 17:15:00,67.9,65.5,29.93,SE,133,1.0,1.0,92,0.04,,,1.26,Wunderground v.1.15,2013-07-26 22:15:00,
2013-07-26 17:24:00,68.3,65.9,29.93,SE,133,0.0,0.0,92,0.00,,,1.26,Wunderground v.1.15,2013-07-26 22:24:00,
2013-07-26 17:30:00,68.4,66.3,29.93,SE,133,0.0,0.0,93,0.00,,,1.26,Wunderground v.1.15,2013-07-26 22:30:00,
2013-07-26 17:40:00,68.3,65.9,29.93,ESE,112,1.0,1.0,92,0.00,,,1.26,Wunderground v.1.15,2013-07-26 22:40:00,
2013-07-26 17:45:00,68.4,66.0,29.93,ESE,112,0.0,1.0,92,0.00,,,1.26,Wunderground v.1.15,2013-07-26 22:45:00,
2013-07-26 17:54:00,68.6,66.2,29.93,ESE,112,0.0,0.0,92,0.00,,,1.26,Wunderground v.1.15,2013-07-26 22:54:00,
2013-07-26 18:00:00,68.6,66.2,29.93,ESE,112,0.0,0.0,92,0.00,,,1.26,Wunderground v.1.15,2013-07-26 23:00:00,
2013-07-26 18:05:00,68.6,66.2,29.93,ESE,112,0.0,0.0,92,0.00,,,1.26,Wunderground v.1.15,2013-07-26 23:05:00,
2013-07-26 18:10:00,68.8,66.4,29.93,ESE,112,0.0,0.0,92,0.00,,,1.26,Wunderground v.1.15,2013-07-26 23:10:00,
2013-07-26 18:20:00,68.8,66.4,29.93,ESE,112,0.0,0.0,92,0.00,,,1.26,Wunderground v.1.15,2013-07-26 23:20:00,
2013-07-26 18:30:00,68.8,66.4,29.93,ESE,115,0.0,2.0,92,0.00,,,1.26,Wunderground v.1.15,2013-07-26 23:30:00,
2013-07-26 18:39:00,68.8,66.4,29.92,SE,131,1.0,1.0,92,0.00,,,1.26,Wunderground v.1.15,2013-07-26 23:39:00,
2013-07-26 18:45:00,68.8,66.4,29.92,SE,138,0.0,1.0,92,0.00,,,1.26,Wunderground v.1.15,2013-07-26 23:45:00,
2013-07-26 18:55:00,68.8,66.1,29.91,SSE,167,1.0,1.0,91,0.00,,,1.26,Wunderground v.1.15,2013-07-26 23:55:00,
2013-07-26 19:05:00,68.6,65.9,29.91,SSE,151,0.0,1.0,91,0.00,,,1.26,Wunderground v.1.15,2013-07-27 00:05:00,
2013-07-26 19:15:00,68.6,65.9,29.91,SSE,153,1.0,3.0,91,0.00,,,1.26,Wunderground v.1.15,2013-07-27 00:15:00,
2013-07-26 19:25:00,68.4,65.7,29.91,South,175,1.0,1.0,91,0.00,,,1.26,Wunderground v.1.15,2013-07-27 00:25:00,
2013-07-26 19:35:00,68.3,65.6,29.90,SSE,158,1.0,1.0,91,0.00,,,1.26,Wunderground v.1.15,2013-07-27 00:35:00,
2013-07-26 19:45:00,68.1,65.4,29.90,South,171,0.0,1.0,91,0.00,,,1.26,Wunderground v.1.15,2013-07-27 00:45:00,
2013-07-26 19:54:00,68.1,65.4,29.90,South,169,0.0,0.0,91,0.00,,,1.26,Wunderground v.1.15,2013-07-27 00:54:00,
2013-07-26 20:00:00,68.1,65.4,29.90,South,170,0.0,0.0,91,0.00,,,1.26,Wunderground v.1.15,2013-07-27 01:00:00,
2013-07-26 20:05:00,67.9,65.2,29.90,South,170,0.0,0.0,91,0.00,,,1.26,Wunderground v.1.15,2013-07-27 01:05:00,
2013-07-26 20:14:00,67.8,65.1,29.90,South,170,0.0,0.0,91,0.00,,,1.26,Wunderground v.1.15,2013-07-27 01:14:00,
2013-07-26 20:20:00,67.8,65.4,29.91,South,170,0.0,0.0,92,0.00,,,1.26,Wunderground v.1.15,2013-07-27 01:20:00,
2013-07-26 20:30:00,67.6,65.2,29.91,South,170,0.0,0.0,92,0.00,,,1.26,Wunderground v.1.15,2013-07-27 01:30:00,
2013-07-26 20:39:00,67.3,64.9,29.90,South,170,0.0,0.0,92,0.00,,,1.26,Wunderground v.1.15,2013-07-27 01:39:00,
2013-07-26 20:45:00,67.3,64.9,29.90,South,170,0.0,0.0,92,0.00,,,1.26,Wunderground v.1.15,2013-07-27 01:45:00,
2013-07-26 20:55:00,67.1,64.7,29.90,South,170,0.0,0.0,92,0.00,,,1.26,Wunderground v.1.15,2013-07-27 01:55:00,
2013-07-26 21:05:00,66.9,64.5,29.91,South,170,0.0,0.0,92,0.00,,,1.26,Wunderground v.1.15,2013-07-27 02:05:00,
2013-07-26 21:15:00,67.1,65.0,29.91,South,170,0.0,0.0,93,0.00,,,1.26,Wunderground v.1.15,2013-07-27 02:15:00,
2013-07-26 21:25:00,67.1,65.0,29.90,South,170,0.0,0.0,93,0.00,,,1.26,Wunderground v.1.15,2013-07-27 02:25:00,
2013-07-26 21:35:00,67.3,65.2,29.91,South,170,0.0,0.0,93,0.00,,,1.26,Wunderground v.1.15,2013-07-27 02:35:00,
2013-07-26 21:45:00,67.4,65.3,29.91,South,170,0.0,0.0,93,0.00,,,1.26,Wunderground v.1.15,2013-07-27 02:45:00,
2013-07-26 21:54:00,67.3,65.2,29.91,South,170,0.0,0.0,93,0.00,,,1.26,Wunderground v.1.15,2013-07-27 02:54:00,
2013-07-26 22:00:00,67.3,65.2,29.91,South,170,0.0,0.0,93,0.00,,,1.26,Wunderground v.1.15,2013-07-27 03:00:00,
2013-07-26 22:05:00,67.3,65.2,29.90,South,170,0.0,0.0,93,0.00,,,1.26,Wunderground v.1.15,2013-07-27 03:05:00,
2013-07-26 22:14:00,67.3,65.2,29.90,South,170,0.0,0.0,93,0.00,,,1.26,Wunderground v.1.15,2013-07-27 03:14:00,
2013-07-26 22:20:00,67.3,65.2,29.90,South,170,0.0,0.0,93,0.00,,,1.26,Wunderground v.1.15,2013-07-27 03:20:00,
2013-07-26 22:29:00,67.3,65.2,29.90,South,170,0.0,0.0,93,0.00,,,1.26,Wunderground v.1.15,2013-07-27 03:29:00,
2013-07-26 22:35:00,67.1,65.0,29.90,South,170,0.0,0.0,93,0.00,,,1.27,Wunderground v.1.15,2013-07-27 03:35:00,
2013-07-26 22:45:00,67.1,65.0,29.90,South,170,0.0,0.0,93,0.00,,,1.27,Wunderground v.1.15,2013-07-27 03:45:00,
2013-07-26 22:54:00,66.8,64.7,29.90,South,170,0.0,0.0,93,0.00,,,1.27,Wunderground v.1.15,2013-07-27 03:54:00,
2013-07-26 22:59:00,66.6,64.5,29.90,South,170,0.0,0.0,93,0.00,,,1.27,Wunderground v.1.15,2013-07-27 03:59:00,
2013-07-26 23:05:00,66.4,64.3,29.91,South,170,0.0,0.0,93,0.00,,,1.27,Wunderground v.1.15,2013-07-27 04:05:00,
2013-07-26 23:10:00,66.3,64.2,29.91,South,170,0.0,0.0,93,0.00,,,1.27,Wunderground v.1.15,2013-07-27 04:10:00,
2013-07-26 23:20:00,66.0,63.9,29.92,South,170,0.0,0.0,93,0.00,,,1.27,Wunderground v.1.15,2013-07-27 04:20:00,
2013-07-26 23:30:00,65.8,63.7,29.92,South,170,0.0,0.0,93,0.00,,,1.27,Wunderground v.1.15,2013-07-27 04:30:00,
2013-07-26 23:40:00,65.5,63.4,29.92,South,170,0.0,0.0,93,0.00,,,1.27,Wunderground v.1.15,2013-07-27 04:40:00,
2013-07-26 23:50:00,65.0,62.9,29.93,South,170,0.0,0.0,93,0.00,,,1.27,Wunderground v.1.15,2013-07-27 04:50:00,